Find Praetorian SDA-605

NORAD ID: 65568 Int'l Des: 2025-203 Owner: SDA Country: US operational
LEOCIRCULARPOLAR

リアルタイム位置

3D地球を読み込み中...

Praetorian SDA-605について

説明を読み込み中...

次回通過

Passes for default location (London). Set your location on the main map for personalized predictions.

高度履歴

Loading altitude history...

軌道要素

1 65568U 25203D 26104.60797864 .00000049 00000-0 33733-4 0 9998
2 65568 81.3002 69.5685 0008583 10.3811 349.7521 13.83425808 29906
Epoch: Apr 14, 2026 • Age: 9 hours

現在のステータス

高度 950.9 km
速度 7.38 km/s
衛星直下点 35.70°N, 119.29°W
打ち上げ日 Sep 10, 2025
運用期間 0.5 years
タイプ other

技術仕様

分類 Payload
質量 300.00 kg
乾燥質量 300.00 kg
総質量 300.00 kg
長さ 1.00 m
直径 0.60 m
スパン 2.00 m
形状 Box + panels
製造者 YORKSS
バスタイプ S-Class
フェーズステータス In Orbit
所有者/国 SDA/US

Most Searched